Back to catalog

STARLINK-32827

AliveCommunicationsVLEO
NORAD 63043·PAYLOAD·🇺🇸 United States

Launched Feb 18, 2025 from Cape Canaveral Space Force Station

Loading…

Next Passes (next 24 hours)

TLE

FreshSource: CelesTrak SupGP

Epoch: Sep 14, 2026, 21:05 UTC

1 63043C 25034Q   26257.87895833 -.00049103  00000+0 -14508-2 0  2578
2 63043  53.1574 108.3372 0001306  87.4988   6.3042 15.34413395    15

Track STARLINK-32827 in real time with AllMySat

Download on the App Store